Weather reports worldwide

Advertisment
Farnborough, United Kingdom (3768): temperature & dewpoint: 11.11.2018 03:00:00 - 17.11.2018 03:00:00 (GMT)Farnborough, United Kingdom (3768): temperature -100cm: 11.11.2018 03:00:00 - 17.11.2018 03:00:00 (GMT)Farnborough, United Kingdom (3768): wind speed & gusts: 11.11.2018 03:00:00 - 17.11.2018 03:00:00 (GMT)Farnborough, United Kingdom (3768): wind direction: 11.11.2018 03:00:00 - 17.11.2018 03:00:00 (GMT)Farnborough, United Kingdom (3768): reduced air pressure: 11.11.2018 03:00:00 - 17.11.2018 03:00:00 (GMT)Farnborough, United Kingdom (3768): visibility: 11.11.2018 03:00:00 - 17.11.2018 03:00:00 (GMT)Farnborough, United Kingdom (3768): precipitation: 11.11.2018 03:00:00 - 17.11.2018 03:00:00 (GMT)
Date & Time tt [°C] td [°C] tt -100cm [°C] ff [km/h] ff [kn] fx [km/h] fx [kn] dd ppp [hPa] vv [km] rr [mm]
17.11.2018 03:00:00 7,9 7,9 - 16 9 - - E 1026,2 5 0,2
17.11.2018 02:00:00 7,9 7,9 - 11 6 - - E 1026,4 1,4 0,0
17.11.2018 01:00:00 7,9 7,9 - 11 6 - - E 1026,3 1,7 0,0
17.11.2018 00:00:00 8,0 8,0 - 13 7 - - E 1026,1 0,9 -
16.11.2018 23:00:00 8,4 8,3 - 15 8 - - ENE 1026,0 1,6 0,0
16.11.2018 22:00:00 8,9 8,8 - 15 8 - - E 1025,9 4,5 0,0
16.11.2018 21:00:00 9,1 9,0 - 13 7 - - ENE 1025,6 3,5 0,0
16.11.2018 20:00:00 9,3 9,2 - 11 6 - - ENE 1025,8 3,8 0,0
16.11.2018 19:00:00 9,3 9,1 - 9 5 - - E 1025,8 4,2 0,0
16.11.2018 18:00:00 9,4 9,3 - 13 7 - - ESE 1025,6 5 0,0
16.11.2018 17:00:00 9,6 9,4 - 11 6 - - E 1025,3 5 0,0
16.11.2018 16:00:00 9,7 9,5 - 11 6 - - E 1024,9 4,8 0,0
16.11.2018 15:00:00 9,6 9,5 - 15 8 - - E 1025,0 3,5 0,0
16.11.2018 14:00:00 10,0 9,7 - 9 5 - - E 1025,0 5 0,0
16.11.2018 13:00:00 10,2 9,8 - 11 6 - - E 1025,3 5 0,0
16.11.2018 12:00:00 10,5 10,1 - 11 6 - - E 1025,5 6 0,0
16.11.2018 11:00:00 10,6 10,1 - 11 6 - - E 1025,9 3,8 0,0
16.11.2018 10:00:00 10,8 10,5 - 11 6 - - E 1025,9 3,6 0,0
16.11.2018 09:00:00 10,8 10,7 11,2 13 7 - - E 1025,5 2,7 0,2
16.11.2018 08:00:00 10,9 10,8 - 9 5 - - E 1025,0 2,5 0,0
16.11.2018 07:00:00 10,9 10,8 - 13 7 - - E 1023,9 3,0 0,0
16.11.2018 06:00:00 11,1 11,0 - 9 5 - - E 1023,5 4,1 0,0
16.11.2018 05:00:00 11,1 11,0 - 4 2 - - E 1023,3 3,9 0,0
16.11.2018 04:00:00 11,0 11,0 - 9 5 - - E 1022,8 4,4 0,0
16.11.2018 03:00:00 11,0 11,0 - 9 5 - - E 1022,8 1,8 0,2
16.11.2018 02:00:00 11,1 11,1 - 2 1 - - E 1023,1 0,4 0,0
16.11.2018 01:00:00 11,1 11,1 - 9 5 - - ESE 1022,4 0,4 0,0
16.11.2018 00:00:00 11,2 11,0 - 9 5 - - SE 1022,5 2,1 0,0
15.11.2018 23:00:00 11,2 11,1 - 9 5 - - SE 1022,1 2,6 0,0
15.11.2018 22:00:00 11,2 11,0 - 13 7 - - SSE 1021,5 2,8 0,0
15.11.2018 21:00:00 11,2 11,0 - 13 7 - - SSE 1021,1 3,8 0,0
15.11.2018 20:00:00 11,4 10,9 - 13 7 - - SSE 1020,8 4,7 0,0
15.11.2018 19:00:00 11,7 11,0 - 15 8 - - SE 1020,7 6 0,0
15.11.2018 18:00:00 12,2 11,3 - 11 6 - - SE 1020,4 8 0,0
15.11.2018 17:00:00 12,6 11,4 - 11 6 - - SE 1019,8 10 0,0
15.11.2018 16:00:00 13,1 11,8 - 11 6 - - SE 1019,8 10 0,0
15.11.2018 15:00:00 13,6 12,1 - 15 8 - - ESE 1019,7 10 0,0
15.11.2018 14:00:00 14,4 12,6 - 11 6 - - SE 1019,9 10 0,0
15.11.2018 13:00:00 13,9 12,6 - 9 5 - - SE 1020,3 9 0,0
15.11.2018 12:00:00 13,3 11,9 - 9 5 - - SE 1020,6 9 0,0
15.11.2018 11:00:00 13,0 11,5 - 9 5 - - SE 1020,8 10 0,0
15.11.2018 10:00:00 12,5 11,6 - 11 6 - - SE 1021,0 7 0,0
15.11.2018 09:00:00 10,7 10,7 11,4 0 0 - - N 1021,1 5 0,0
15.11.2018 08:00:00 9,5 9,4 - 4 2 - - - 1020,9 5 0,0
15.11.2018 07:00:00 9,1 8,7 - 4 2 - - - 1020,5 6 0,0
15.11.2018 06:00:00 10,1 9,9 - 2 1 - - E 1020,2 9 0,0
15.11.2018 05:00:00 9,9 9,8 - 2 1 - - SSE 1020,3 4,8 0,0
15.11.2018 04:00:00 10,5 10,1 - 2 1 - - SSE 1020,1 9 0,0
15.11.2018 03:00:00 11,3 11,2 - 0 0 - - N 1020,1 8 0,0
15.11.2018 02:00:00 11,2 11,2 - 9 5 - - S 1020,2 6 0,0
15.11.2018 01:00:00 10,5 10,5 - 8 4 - - SSE 1020,1 5 0,0
15.11.2018 00:00:00 9,8 9,8 - 4 2 - - ESE 1020,6 4,4 0,0
14.11.2018 23:00:00 9,6 9,6 - 5 3 - - SE 1020,6 0,2 0,2
14.11.2018 22:00:00 9,0 9,0 - 5 3 - - SE 1021,0 0,3 0,0
14.11.2018 21:00:00 7,1 7,1 - 11 6 - - SE 1021,0 4,2 0,0
14.11.2018 20:00:00 8,0 7,7 - 8 4 - - SE 1021,2 8 0,0
14.11.2018 19:00:00 8,6 8,1 - 9 5 - - SE 1021,1 10 0,0
14.11.2018 18:00:00 9,2 8,1 - 9 5 - - SSE 1021,1 10 0,0
14.11.2018 17:00:00 9,7 7,2 - 9 5 - - SSE 1021,0 10 0,0
14.11.2018 16:00:00 12,3 7,7 - 9 5 - - SSE 1020,9 10 0,0
14.11.2018 15:00:00 13,1 7,8 - 15 8 - - S 1021,1 10 0,0
14.11.2018 14:00:00 13,6 7,4 - 16 9 - - S 1021,2 10 0,0
14.11.2018 13:00:00 13,9 8,1 - 18 10 - - S 1021,7 10 0,0
14.11.2018 12:00:00 13,0 8,5 - 15 8 - - S 1022,2 10 0,0
14.11.2018 11:00:00 12,4 8,4 - 22 12 - - S 1022,8 10 0,0
14.11.2018 10:00:00 12,0 9,6 - 16 9 - - S 1022,8 10 0,0
14.11.2018 09:00:00 10,4 8,8 11,4 15 8 - - S 1022,7 10 0,0
14.11.2018 08:00:00 10,2 8,8 - 18 10 - - S 1022,7 10 0,0
14.11.2018 07:00:00 10,4 8,7 - 15 8 - - S 1022,5 10 0,0
14.11.2018 06:00:00 10,9 9,2 - 16 9 - - S 1022,3 24 0,0
14.11.2018 05:00:00 11,0 9,2 - 16 9 - - S 1022,3 25 0,0
14.11.2018 04:00:00 11,4 9,4 - 21 11 - - S 1022,1 25 0,0
14.11.2018 03:00:00 11,0 9,4 - 15 8 - - S 1022,8 23 0,0
14.11.2018 02:00:00 10,9 9,3 - 13 7 - - S 1023,5 27 0,0
14.11.2018 01:00:00 10,1 8,8 - 9 5 - - S 1024,4 25 0,0
14.11.2018 00:00:00 9,9 9,0 - 11 6 - - S 1024,4 22 0,0
13.11.2018 23:00:00 9,8 8,6 - 11 6 - - SSE 1025,0 21 0,0
13.11.2018 22:00:00 9,1 8,4 - 11 6 - - S 1025,0 18 0,0
13.11.2018 21:00:00 9,3 8,3 - 13 7 - - S 1025,2 10 0,0
13.11.2018 20:00:00 9,1 7,9 - 11 6 - - S 1025,1 10 0,0
13.11.2018 19:00:00 10,1 8,4 - 13 7 - - S 1025,0 10 0,0
13.11.2018 18:00:00 10,5 8,3 - 13 7 - - S 1024,5 10 0,0
13.11.2018 17:00:00 10,9 7,9 - 13 7 - - S 1024,2 10 0,0
13.11.2018 16:00:00 11,6 7,3 - 11 6 - - S 1023,9 10 0,0
13.11.2018 15:00:00 12,7 6,0 - 28 15 - - SW 1023,5 10 0,0
13.11.2018 14:00:00 13,8 7,7 - 16 9 - - SW 1023,0 10 0,0
13.11.2018 13:00:00 13,4 7,6 - 24 13 - - SW 1023,0 10 0,0
13.11.2018 12:00:00 12,8 7,3 - 28 15 - - WSW 1022,5 10 0,0
13.11.2018 11:00:00 12,1 8,0 - 22 12 - - WSW 1022,1 10 0,0
13.11.2018 10:00:00 11,1 7,8 - 22 12 - - WSW 1021,3 10 0,0
13.11.2018 09:00:00 10,0 7,2 11,5 18 10 - - WSW 1020,3 10 0,0
13.11.2018 08:00:00 8,2 6,4 - 16 9 - - SW 1019,3 10 0,0
13.11.2018 07:00:00 8,3 6,4 - 16 9 - - SW 1018,1 10 0,0
13.11.2018 06:00:00 7,6 6,0 - 13 7 - - SW 1017,1 29 0,0
13.11.2018 05:00:00 7,7 6,0 - 11 6 - - SW 1016,1 30 0,0
13.11.2018 04:00:00 8,0 6,2 - 15 8 - - SW 1015,0 28 0,0
13.11.2018 03:00:00 9,0 7,0 - 16 9 - - SW 1014,3 30 0,0
13.11.2018 02:00:00 9,6 7,4 - 18 10 - - SSW 1013,7 25 0,0
13.11.2018 01:00:00 9,2 6,5 - 16 9 - - SSW 1013,0 27 0,0
13.11.2018 00:00:00 9,0 5,9 - 18 10 - - SW 1012,8 30 0,0
12.11.2018 23:00:00 10,3 7,1 - 22 12 - - SSW 1012,0 30 0,0
12.11.2018 22:00:00 9,8 8,1 - 16 9 - - S 1011,7 22 0,0
12.11.2018 21:00:00 8,6 7,5 - 13 7 - - S 1011,8 10 0,0
12.11.2018 20:00:00 8,5 7,2 - 8 4 - - S 1011,6 21 0,0
12.11.2018 19:00:00 9,3 7,4 - 15 8 - - S 1011,7 10 0,0
12.11.2018 18:00:00 10,5 8,7 - 15 8 - - S 1011,4 20 0,0
12.11.2018 17:00:00 10,4 7,9 - 15 8 - - S 1011,2 10 0,0
12.11.2018 16:00:00 11,4 8,1 - 18 10 - - S 1010,5 10 0,0
12.11.2018 15:00:00 11,9 8,1 - 21 11 - - S 1010,1 10 0,0
12.11.2018 14:00:00 13,1 8,9 - 24 13 - - SSW 1009,7 9 0,0
12.11.2018 13:00:00 13,4 8,6 - 24 13 - - S 1009,4 25 0,0
12.11.2018 12:00:00 14,4 10,5 - 21 11 - - SSW 1009,2 10 0,0
12.11.2018 11:00:00 12,4 9,3 - 16 9 - - S 1009,4 10 0,0
12.11.2018 10:00:00 10,1 8,0 - 18 10 - - S 1009,4 10 0,0
12.11.2018 09:00:00 9,6 8,8 11,5 15 8 - - S 1009,1 9 0,2
12.11.2018 08:00:00 9,9 9,8 - 13 7 - - S 1008,5 7 0,0
12.11.2018 07:00:00 8,9 8,6 - 8 4 - - SSE 1007,7 9 0,6
12.11.2018 06:00:00 9,1 8,5 - 5 3 - - SSW 1007,3 24 0,0
12.11.2018 05:00:00 9,4 8,3 - 11 6 - - S 1006,9 29 0,0
12.11.2018 04:00:00 9,1 8,7 - 11 6 - - S 1006,5 23 0,0
12.11.2018 03:00:00 8,6 7,9 - 9 5 - - SSE 1006,4 30 0,2
12.11.2018 02:00:00 9,0 8,2 - 11 6 - - S 1006,7 17 0,4
12.11.2018 01:00:00 9,0 8,2 - 13 7 - - S 1006,4 30 0,4
12.11.2018 00:00:00 9,1 8,4 - 13 7 - - S 1006,3 14 0,8
11.11.2018 23:00:00 8,5 7,4 - 13 7 - - S 1005,8 19 0,0
11.11.2018 22:00:00 8,1 6,8 - 13 7 - - SSE 1005,5 21 0,0
11.11.2018 21:00:00 8,6 6,9 - 15 8 - - S 1005,3 25 0,0
11.11.2018 20:00:00 8,0 6,5 - 11 6 - - S 1004,8 10 0,0
11.11.2018 19:00:00 8,1 6,4 - 13 7 - - S 1004,5 10 0,0
11.11.2018 18:00:00 8,4 6,2 - 13 7 - - S 1003,5 10 0,0
11.11.2018 17:00:00 9,9 6,9 - 15 8 - - SSW 1002,9 10 0,0
11.11.2018 16:00:00 11,2 7,1 - 15 8 - - SSW 1001,9 10 0,0
11.11.2018 15:00:00 12,3 7,5 - 18 10 - - SW 1001,1 10 0,0
11.11.2018 14:00:00 12,3 7,5 - 18 10 48 26 SW 1000,5 10 0,2
11.11.2018 13:00:00 13,2 7,4 - 21 11 - - SW 999,8 10 0,0
11.11.2018 12:00:00 12,5 7,8 - 29 16 - - SSW 999,4 10 0,0
11.11.2018 11:00:00 11,8 7,4 - 26 14 - - SW 998,8 10 0,0
11.11.2018 10:00:00 10,6 7,7 - 28 15 - - SW 997,9 10 0,0
11.11.2018 09:00:00 10,1 8,5 11,7 15 8 - - SSW 996,8 10 0,0
11.11.2018 08:00:00 9,7 8,2 - 22 12 - - SSW 995,7 10 0,4
11.11.2018 07:00:00 9,5 8,7 - 15 8 - - S 994,2 26 0,2
11.11.2018 06:00:00 9,1 8,4 - 15 8 52 28 SSE 993,7 26 5,2
11.11.2018 05:00:00 9,1 8,7 - 13 7 - - SSE 994,2 2,8 1,0
11.11.2018 04:00:00 7,9 7,6 - 11 6 - - SE 994,1 30 0,0
11.11.2018 03:00:00 7,8 7,6 - 11 6 - - SSE 994,6 30 0,2

tt = temperature
td = dewpoint
tt -100cm = temperature -100cm
ff = wind speed
fx = gusts
dd = wind direction
ppp = reduced air pressure
vv = visibility
rr = precipitation

Next stations